EW0975 Weather Reports


Display with metric or nautical units.
time (UTC)temp
F
wind
direction
speed
MPH
gust
MPH
rain 1hr
in
rain 24hr
in
rain mn
in
humidity
%
barometer
mb
20190117123003 33 144 0.0 1.0 0.02 0.22 0.22 97 1017.3
20190117122503 33 152 0.0 0.0 0.02 0.22 0.22 97 1017.3
20190117122003 33 148 0.0 1.0 0.01 0.21 0.21 97 1017.3
20190117121503 33 142 0.0 2.0 0.01 0.21 0.21 97 1017.3
20190117121004 33 153 0.0 2.0 0.02 0.21 0.21 97 1017.3
20190117120505 33 151 0.0 0.0 0.02 0.21 0.21 97 1016.9
20190117120004 33 147 0.0 1.0 0.02 0.21 0.21 97 1017.1
20190117115503 33 152 0.0 0.0 0.02 0.21 0.21 97 1016.9
20190117115003 33 142 1.0 1.0 0.03 0.21 0.21 97 1016.9
20190117114504 33 137 0.0 1.0 0.03 0.21 0.21 97 1017.3
20190117114006 33 159 1.0 1.0 0.03 0.21 0.21 97 1017.1
20190117113503 33 140 0.0 1.0 0.03 0.20 0.20 97 1017.1
20190117113004 33 140 0.0 0.0 0.03 0.20 0.20 97 1017.3
20190117112505 33 140 0.0 0.0 0.04 0.20 0.20 97 1017.1
20190117112003 33 140 0.0 1.0 0.04 0.20 0.20 97 1017.1
20190117111503 33 140 0.0 0.0 0.05 0.20 0.20 97 1016.9
20190117111005 33 140 0.0 1.0 0.04 0.19 0.19 97 1016.9
20190117110503 33 141 0.0 2.0 0.05 0.19 0.19 97 1016.9
20190117110003 33 136 1.0 2.0 0.05 0.19 0.19 97 1017.3
20190117105503 33 142 0.0 0.0 0.06 0.19 0.19 97 1017.3
20190117105004 33 144 0.0 0.0 0.05 0.18 0.18 97 1017.3
20190117104512 33 145 0.0 0.0 0.05 0.18 0.18 97 1017.3
20190117104004 33 145 0.0 0.0 0.06 0.18 0.18 97 1017.4
20190117103504 33 145 0.0 1.0 0.05 0.17 0.17 97 1017.3
20190117103005 33 146 0.0 1.0 0.05 0.17 0.17 97 1017.6
20190117102504 33 147 0.0 0.0 0.05 0.16 0.16 97 1017.6
20190117102005 33 147 0.0 0.0 0.05 0.16 0.16 97 1017.8
20190117101506 33 147 0.0 0.0 0.05 0.15 0.15 97 1017.6
20190117101005 33 147 0.0 0.0 0.05 0.15 0.15 97 1017.7
20190117100504 33 146 0.0 1.0 0.05 0.14 0.14 97 1017.9
20190117100004 33 146 0.0 1.0 0.05 0.14 0.14 97 1017.9
20190117095503 33 144 0.0 1.0 0.05 0.13 0.13 97 1018.1
20190117095004 33 144 0.0 0.0 0.05 0.13 0.13 97 1018.2
20190117094505 33 144 0.0 0.0 0.05 0.13 0.13 97 1018.3
20190117094005 33 144 0.0 0.0 0.05 0.12 0.12 97 1018.2
20190117093503 33 144 0.0 1.0 0.05 0.12 0.12 97 1018.3
20190117093003 33 142 1.0 1.0 0.05 0.12 0.12 97 1018.3
20190117092504 33 146 0.0 1.0 0.04 0.11 0.11 97 1018.5
20190117092004 33 150 0.0 0.0 0.04 0.11 0.11 97 1018.4
20190117091504 33 148 0.0 1.0 0.04 0.10 0.10 97 1018.6
20190117091004 33 155 0.0 1.0 0.04 0.10 0.10 97 1018.6
20190117090512 33 128 1.0 2.0 0.03 0.09 0.09 97 1018.6
20190117090005 33 113 1.0 2.0 0.03 0.09 0.09 97 1019.0
20190117085504 33 141 1.0 1.0 0.03 0.08 0.08 97 1019.0
20190117085004 33 143 0.0 0.0 0.03 0.08 0.08 97 1019.0
20190117084504 33 143 0.0 0.0 0.03 0.08 0.08 97 1019.0
20190117084004 33 143 0.0 0.0 0.02 0.07 0.07 97 1019.0
20190117083504 33 143 0.0 0.0 0.02 0.07 0.07 97 1018.7
20190117083005 33 143 0.0 0.0 0.03 0.07 0.07 97 1019.0
20190117082505 33 143 0.0 0.0 0.03 0.07 0.07 97 1019.0
20190117082005 33 143 0.0 1.0 0.03 0.07 0.07 97 1019.0
20190117081503 33 143 0.0 1.0 0.02 0.06 0.06 97 1019.0
20190117081008 33 141 1.0 1.0 0.03 0.06 0.06 97 1019.0
20190117080505 33 144 0.0 1.0 0.03 0.06 0.06 97 1019.3
20190117080004 33 143 1.0 1.0 0.03 0.06 0.06 97 1019.1
20190117075505 33 145 0.0 1.0 0.02 0.05 0.05 97 1019.2
20190117075004 33 144 1.0 1.0 0.03 0.05 0.05 97 1019.3
20190117074505 33 145 0.0 1.0 0.03 0.05 0.05 97 1019.3
20190117074003 33 145 0.0 1.0 0.03 0.05 0.05 97 1019.0
20190117073505 33 146 0.0 2.0 0.03 0.05 0.05 97 1019.1
20190117073006 33 137 1.0 2.0 0.02 0.04 0.04 97 1019.2
20190117072503 33 134 1.0 2.0 0.03 0.04 0.04 97 1019.2
20190117072004 33 130 2.0 2.0 0.03 0.04 0.04 96 1019.3
20190117071504 33 131 2.0 3.0 0.03 0.04 0.04 96 1019.3
20190117071004 33 132 1.0 2.0 0.02 0.03 0.03 96 1019.3
20190117070505 33 135 1.0 2.0 0.03 0.03 0.03 96 1019.3
20190117070003 33 123 2.0 2.0 0.03 0.03 0.03 96 1019.3
20190117065505 33 136 2.0 3.0 0.02 0.03 0.03 96 1019.3
20190117065005 33 133 2.0 2.0 0.01 0.02 0.02 96 1019.6
20190117064503 33 135 1.0 2.0 0.01 0.02 0.02 96 1019.6
20190117064003 33 127 2.0 2.0 0.01 0.02 0.02 96 1020.0
20190117063504 33 132 2.0 2.0 0.01 0.02 0.02 96 1019.8
20190117063007 33 133 1.0 2.0 0.01 0.02 0.02 96 1020.0
20190117062505 33 131 1.0 3.0 0.00 0.01 0.01 96 1020.0
20190117062005 33 130 2.0 2.0 0.00 0.01 0.01 96 1020.0
20190117061503 33 134 1.0 2.0 0.00 0.02 0.01 96 1020.2
20190117061004 33 129 2.0 3.0 0.00 0.02 0.01 96 1020.3
20190117060507 33 137 3.0 5.0 0.00 0.01 0.00 96 1020.5
20190117060005 33 138 3.0 5.0 0.00 0.01 0.00 96 1020.7
20190117055505 33 138 3.0 5.0 0.00 0.01 0.01 96 1020.7
20190117055005 33 138 3.0 5.0 0.00 0.01 0.01 96 1020.7
20190117054504 33 138 3.0 5.0 0.00 0.01 0.01 96 1020.7
20190117054005 33 131 2.0 5.0 0.00 0.01 0.01 96 1020.8
20190117053504 33 137 2.0 3.0 0.00 0.01 0.01 96 1021.0
20190117053005 33 138 3.0 6.0 0.00 0.01 0.01 95 1020.7
20190117052504 33 128 3.0 6.0 0.00 0.01 0.01 95 1020.9
20190117052005 33 182 0.0 0.0 0.00 0.01 0.01 97 1021.0
20190117051504 33 182 0.0 0.0 0.00 0.01 0.01 97 1021.0
20190117051004 33 182 0.0 0.0 0.00 0.01 0.01 97 1021.0
20190117050503 33 182 0.0 0.0 0.00 0.01 0.01 97 1021.0
20190117050004 33 182 0.0 0.0 0.00 0.01 0.01 97 1021.0
20190117045504 33 182 0.0 0.0 0.00 0.01 0.01 97 1021.0
20190117045005 33 182 0.0 0.0 0.00 0.01 0.01 97 1021.0
20190117044504 33 182 0.0 0.0 0.00 0.01 0.01 97 1021.0
20190117044005 33 182 0.0 0.0 0.00 0.01 0.01 97 1021.0
20190117043505 33 182 0.0 0.0 0.00 0.01 0.01 97 1021.0
20190117043006 33 182 0.0 0.0 0.00 0.01 0.01 97 1021.0
20190117042505 33 182 0.0 0.0 0.00 0.01 0.01 97 1021.0
20190117042005 33 182 0.0 0.0 0.00 0.01 0.01 97 1021.0
20190117041504 33 182 0.0 0.0 0.00 0.01 0.01 97 1021.0
20190117041005 33 182 0.0 0.0 0.00 0.01 0.01 97 1021.0
20190117040506 33 182 0.0 0.0 0.00 0.01 0.01 97 1021.0
20190117040005 33 182 0.0 0.0 0.00 0.01 0.01 97 1021.0
20190117035505 33 182 0.0 0.0 0.00 0.01 0.01 97 1021.0
20190117035005 33 182 0.0 0.0 0.00 0.01 0.01 97 1021.0
20190117034505 33 182 0.0 0.0 0.00 0.01 0.01 97 1021.0
20190117034005 33 182 0.0 0.0 0.00 0.01 0.01 97 1021.0
20190117033502 33 182 0.0 0.0 0.00 0.01 0.01 97 1021.0
20190117033002 33 182 0.0 0.0 0.00 0.01 0.01 97 1021.0
20190117032501 33 182 0.0 0.0 0.00 0.01 0.01 97 1021.0
20190117031501 33 182 0.0 0.0 0.00 0.01 0.01 97 1021.0
20190117031002 33 182 0.0 0.0 0.00 0.01 0.01 97 1021.0
20190117030501 33 182 0.0 0.0 0.00 0.01 0.01 97 1021.0
20190117030002 33 182 0.0 0.0 0.00 0.01 0.01 97 1021.0
20190117025501 33 182 0.0 0.0 0.00 0.01 0.01 97 1021.0
20190117025002 33 182 0.0 0.0 0.00 0.01 0.01 97 1021.0
20190117024502 33 182 0.0 0.0 0.00 0.01 0.01 97 1021.0
20190117023502 33 182 0.0 0.0 0.00 0.01 0.01 97 1021.0
20190117023003 33 182 0.0 0.0 0.00 0.01 0.01 97 1021.0
20190117022501 33 182 0.0 0.0 0.00 0.01 0.01 97 1021.0
20190117022002 33 182 0.0 0.0 0.00 0.01 0.01 97 1021.0
20190117021501 33 182 0.0 0.0 0.00 0.01 0.01 97 1021.0
20190117021002 33 182 0.0 0.0 0.00 0.01 0.01 97 1021.0
20190117020503 33 182 0.0 0.0 0.00 0.01 0.01 97 1021.0
20190117020001 33 182 0.0 0.0 0.00 0.01 0.01 97 1021.0
20190117015500 33 182 0.0 0.0 0.00 0.01 0.01 97 1021.0
20190117015002 33 182 0.0 0.0 0.00 0.01 0.01 97 1021.0
20190117014501 33 182 0.0 0.0 0.00 0.01 0.01 97 1021.0
20190117014001 33 182 0.0 0.0 0.00 0.01 0.01 97 1021.0
20190117013502 33 182 0.0 0.0 0.00 0.01 0.01 97 1021.0
20190117013002 33 182 0.0 0.0 0.00 0.01 0.01 97 1021.0
20190117012501 33 182 0.0 0.0 0.00 0.01 0.01 97 1021.0
20190117012003 33 182 0.0 0.0 0.00 0.01 0.01 97 1021.0
20190117011503 33 182 0.0 0.0 0.00 0.01 0.01 97 1021.0
20190117011002 33 182 0.0 0.0 0.00 0.01 0.01 97 1021.0
20190117010502 33 182 0.0 0.0 0.00 0.01 0.01 97 1021.0
20190117010001 33 182 0.0 0.0 0.00 0.01 0.01 97 1021.0
20190117005503 33 182 0.0 0.0 0.00 0.01 0.01 97 1021.0
20190117005018 33 182 0.0 0.0 0.00 0.01 0.01 97 1021.0
20190117004501 33 182 0.0 0.0 0.00 0.01 0.01 97 1021.0
20190117004016 33 182 0.0 0.0 0.00 0.01 0.01 97 1021.0
20190117003514 33 182 0.0 0.0 0.00 0.01 0.01 97 1021.0
20190117003003 33 182 0.0 0.0 0.00 0.01 0.01 97 1021.0
20190117002503 33 182 0.0 0.0 0.00 0.01 0.01 97 1021.0
20190117002002 33 182 0.0 0.0 0.00 0.01 0.01 97 1021.0
20190117001502 33 182 0.0 0.0 0.00 0.01 0.01 97 1021.0
20190117001002 33 182 0.0 0.0 0.00 0.01 0.01 97 1021.0
20190117000504 33 182 0.0 0.0 0.00 0.01 0.01 97 1021.0
20190117000002 33 182 0.0 0.0 0.00 0.01 0.01 97 1021.0
20190116235503 33 182 0.0 0.0 0.00 0.01 0.01 97 1021.0
20190116235002 33 182 0.0 0.0 0.00 0.01 0.01 97 1021.0
20190116234503 33 182 0.0 0.0 0.00 0.01 0.01 97 1021.0
20190116234002 33 182 0.0 0.0 0.00 0.01 0.01 97 1021.0
20190116233502 33 182 0.0 0.0 0.00 0.01 0.01 97 1021.0
20190116233001 33 182 0.0 0.0 0.00 0.01 0.01 97 1021.0
20190116232502 33 182 0.0 0.0 0.00 0.01 0.01 97 1021.0
20190116232001 33 182 0.0 0.0 0.00 0.01 0.01 97 1021.0
20190116231502 33 182 0.0 0.0 0.00 0.01 0.01 97 1021.0
20190116231004 33 182 0.0 0.0 0.00 0.01 0.01 97 1021.0
20190116230501 33 182 0.0 0.0 0.00 0.01 0.01 97 1021.0
20190116230001 33 182 0.0 0.0 0.00 0.01 0.01 97 1021.0
20190116225502 33 182 0.0 0.0 0.00 0.01 0.01 97 1021.0
20190116225002 33 182 0.0 0.0 0.00 0.01 0.01 97 1021.0
20190116224501 33 182 0.0 0.0 0.00 0.01 0.01 97 1021.0
20190116224002 33 182 0.0 0.0 0.00 0.01 0.01 97 1021.0
20190116223502 33 182 0.0 0.0 0.00 0.01 0.01 97 1021.0
20190116223002 33 182 0.0 0.0 0.00 0.01 0.01 97 1021.0
20190116222502 33 182 0.0 0.0 0.00 0.01 0.01 97 1021.0
20190116222003 33 182 0.0 0.0 0.00 0.01 0.01 97 1021.0
20190116221503 33 182 0.0 0.0 0.00 0.01 0.01 97 1021.0
20190116221013 33 182 0.0 0.0 0.00 0.01 0.01 97 1021.0
20190116220501 33 182 0.0 0.0 0.00 0.01 0.01 97 1021.0
20190116220003 33 182 0.0 0.0 0.00 0.01 0.01 97 1021.0
20190116215502 33 182 0.0 0.0 0.00 0.01 0.01 97 1021.0
20190116215002 33 182 0.0 0.0 0.00 0.01 0.01 97 1021.0
20190116214501 33 182 0.0 0.0 0.00 0.01 0.01 97 1021.0
20190116214002 33 182 0.0 0.0 0.00 0.01 0.01 97 1021.0
20190116213503 33 182 0.0 0.0 0.00 0.01 0.01 97 1021.0
20190116213003 33 182 0.0 0.0 0.00 0.01 0.01 97 1021.0
20190116212501 33 182 0.0 0.0 0.00 0.01 0.01 97 1021.0
20190116212003 33 182 0.0 0.0 0.00 0.01 0.01 97 1021.0
20190116211503 33 182 0.0 0.0 0.00 0.01 0.01 97 1021.0
20190116211003 33 182 0.0 0.0 0.00 0.01 0.01 97 1021.0
20190116210503 33 182 0.0 0.0 0.00 0.01 0.01 97 1021.0
20190116210001 33 182 0.0 0.0 0.00 0.01 0.01 97 1021.0
20190116205503 33 182 0.0 0.0 0.00 0.01 0.01 97 1021.0
20190116205002 33 182 0.0 0.0 0.00 0.01 0.01 97 1021.0
20190116204502 33 182 0.0 0.0 0.00 0.01 0.01 97 1021.0
20190116204003 33 182 0.0 0.0 0.00 0.01 0.01 97 1021.0
20190116203503 33 182 0.0 0.0 0.00 0.01 0.01 97 1021.0
20190116203003 33 182 0.0 0.0 0.00 0.01 0.01 97 1021.0
20190116202503 33 182 0.0 0.0 0.00 0.01 0.01 97 1021.0
20190116202004 33 182 0.0 0.0 0.00 0.01 0.01 97 1021.0
20190116201501 33 182 0.0 0.0 0.00 0.01 0.01 97 1021.0
20190116201003 33 182 0.0 0.0 0.00 0.01 0.01 97 1021.0
20190116200501 33 182 0.0 0.0 0.00 0.01 0.01 97 1021.0
20190116200002 33 182 0.0 0.0 0.00 0.01 0.01 97 1021.0
20190116195503 33 182 0.0 0.0 0.00 0.01 0.01 97 1021.0
20190116195003 33 182 0.0 0.0 0.00 0.01 0.01 97 1021.0
20190116194501 33 182 0.0 0.0 0.00 0.01 0.01 97 1021.0
20190116194003 33 182 0.0 0.0 0.00 0.01 0.01 97 1021.0
20190116193501 33 182 0.0 0.0 0.00 0.01 0.01 97 1021.0
20190116193002 33 182 0.0 0.0 0.00 0.01 0.01 97 1021.0
20190116192502 33 182 0.0 0.0 0.00 0.01 0.01 97 1021.0
20190116192002 33 182 0.0 0.0 0.00 0.01 0.01 97 1021.0
20190116191502 33 182 0.0 0.0 0.00 0.01 0.01 97 1021.0
20190116191003 33 182 0.0 0.0 0.00 0.01 0.01 97 1021.0
20190116190503 33 182 0.0 0.0 0.00 0.01 0.01 97 1021.0
20190116190002 33 182 0.0 0.0 0.00 0.01 0.01 97 1021.0
20190116185501 33 182 0.0 0.0 0.00 0.01 0.01 97 1021.0
20190116185003 33 182 0.0 0.0 0.00 0.01 0.01 97 1021.0
20190116184503 33 182 0.0 0.0 0.00 0.01 0.01 97 1021.0
20190116184002 33 182 0.0 0.0 0.00 0.01 0.01 97 1021.0
20190116183502 33 182 0.0 0.0 0.00 0.01 0.01 97 1021.0
20190116183003 33 182 0.0 0.0 0.00 0.01 0.01 97 1021.0
20190116182503 33 182 0.0 0.0 0.00 0.01 0.01 97 1021.0
20190116182003 33 182 0.0 0.0 0.00 0.01 0.01 97 1021.0
20190116181503 33 182 0.0 0.0 0.00 0.01 0.01 97 1021.0
20190116181002 33 182 0.0 0.0 0.00 0.01 0.01 97 1021.0
20190116180504 33 182 0.0 0.0 0.00 0.01 0.01 97 1021.0
20190116180004 33 182 0.0 0.0 0.00 0.01 0.01 97 1021.0
20190116175503 33 182 0.0 0.0 0.00 0.01 0.01 97 1021.0
20190116175003 33 182 0.0 0.0 0.00 0.01 0.01 97 1021.0
20190116174502 33 182 0.0 0.0 0.00 0.01 0.01 97 1021.0
20190116174002 33 182 0.0 0.0 0.00 0.01 0.01 97 1021.0
20190116173503 33 182 0.0 0.0 0.00 0.01 0.01 97 1021.0
20190116173003 33 182 0.0 0.0 0.00 0.01 0.01 97 1021.0
20190116172503 33 182 0.0 0.0 0.00 0.01 0.01 97 1021.0
20190116172002 33 182 0.0 0.0 0.00 0.01 0.01 97 1021.0
20190116171504 33 182 0.0 0.0 0.00 0.01 0.01 97 1021.0
20190116171003 33 182 0.0 0.0 0.00 0.01 0.01 97 1021.0
20190116170503 33 182 0.0 0.0 0.00 0.01 0.01 97 1021.0
20190116170001 33 182 0.0 0.0 0.00 0.01 0.01 97 1021.0
20190116165502 33 182 0.0 0.0 0.00 0.01 0.01 97 1021.0
20190116165003 33 182 0.0 0.0 0.00 0.01 0.01 97 1021.0
20190116164502 33 182 0.0 0.0 0.00 0.01 0.01 97 1021.0
20190116164002 33 182 0.0 0.0 0.00 0.01 0.01 97 1021.0
20190116163503 33 182 0.0 0.0 0.00 0.01 0.01 97 1021.0
20190116163003 33 182 0.0 0.0 0.00 0.01 0.01 97 1021.0
20190116162503 33 182 0.0 0.0 0.00 0.01 0.01 97 1021.0
20190116162004 33 182 0.0 0.0 0.00 0.01 0.01 97 1021.0
20190116161503 33 182 0.0 0.0 0.00 0.01 0.01 97 1021.0
20190116161003 33 182 0.0 0.0 0.00 0.01 0.01 97 1021.0
20190116160502 33 182 0.0 0.0 0.00 0.01 0.01 97 1021.0
20190116160003 33 182 0.0 0.0 0.00 0.01 0.01 97 1021.0
20190116155503 33 182 0.0 0.0 0.00 0.01 0.01 97 1021.0
20190116155002 33 182 0.0 0.0 0.00 0.01 0.01 97 1021.0
20190116154502 33 182 0.0 0.0 0.00 0.01 0.01 97 1021.0
20190116154004 33 182 0.0 0.0 0.00 0.01 0.01 97 1021.0
20190116153504 33 182 0.0 0.0 0.00 0.01 0.01 97 1021.0
20190116153003 33 182 0.0 0.0 0.00 0.01 0.01 97 1021.0
20190116152504 33 182 0.0 0.0 0.00 0.01 0.01 97 1021.0
20190116152004 33 182 0.0 0.0 0.00 0.01 0.01 97 1021.0
20190116151504 33 182 0.0 0.0 0.00 0.01 0.01 97 1021.0
20190116151004 33 182 0.0 0.0 0.00 0.01 0.01 97 1021.0
20190116150502 33 182 0.0 0.0 0.00 0.01 0.01 97 1021.0
20190116150003 33 182 0.0 0.0 0.00 0.01 0.01 97 1021.0
20190116145503 33 182 0.0 0.0 0.00 0.01 0.01 97 1021.0
20190116145004 33 182 0.0 0.0 0.00 0.01 0.01 97 1021.0
20190116144504 33 182 0.0 0.0 0.00 0.01 0.01 97 1021.0
20190116144003 33 182 0.0 0.0 0.00 0.01 0.01 97 1021.0
20190116143503 33 182 0.0 0.0 0.00 0.01 0.01 97 1021.0
20190116143004 33 182 0.0 0.0 0.00 0.01 0.01 97 1021.0
20190116142502 33 182 0.0 0.0 0.00 0.01 0.01 97 1021.0
20190116142003 33 182 0.0 0.0 0.00 0.01 0.01 97 1021.0
20190116141503 33 182 0.0 0.0 0.00 0.01 0.01 97 1021.0
20190116141003 33 182 0.0 0.0 0.00 0.01 0.01 97 1021.0
20190116140503 33 182 0.0 0.0 0.00 0.01 0.01 97 1021.0
20190116140004 33 182 0.0 0.0 0.00 0.01 0.01 97 1021.0
20190116135502 33 182 0.0 0.0 0.00 0.01 0.01 97 1021.0
20190116135003 33 182 0.0 0.0 0.00 0.01 0.01 97 1021.0
20190116134503 33 182 0.0 0.0 0.00 0.01 0.01 97 1021.0
20190116134004 33 182 0.0 0.0 0.00 0.01 0.01 97 1021.0
20190116133503 33 182 0.0 0.0 0.00 0.01 0.01 97 1021.0
20190116133004 33 182 0.0 0.0 0.00 0.01 0.01 97 1021.0
20190116132502 33 182 0.0 0.0 0.00 0.01 0.01 97 1021.0
20190116132002 33 182 0.0 0.0 0.00 0.01 0.01 97 1021.0
20190116131503 33 182 0.0 0.0 0.00 0.01 0.01 97 1021.0
20190116131004 33 182 0.0 0.0 0.00 0.01 0.01 97 1021.0
20190116130504 33 182 0.0 0.0 0.00 0.01 0.01 97 1021.0
20190116130003 33 182 0.0 0.0 0.00 0.01 0.01 97 1021.0
20190116125503 33 182 0.0 0.0 0.00 0.01 0.01 97 1021.0
20190116125003 33 182 0.0 0.0 0.00 0.01 0.01 97 1021.0
20190116124503 33 182 0.0 0.0 0.00 0.01 0.01 97 1021.0
20190116124004 33 182 0.0 0.0 0.00 0.01 0.01 97 1021.0
20190116123504 33 182 0.0 0.0 0.00 0.01 0.01 97 1021.0